Regional Weather Roundup
Issued by NWS

Home | Current Version | Previous Version | Text Only | Print | Product List | Glossary Off
Versions: 1 2 3 4 5 6 7 8 9 10 11 12 13 14 15 16 17 18 19 20 21 22 23 24 25 26 27 28 29 30 31 32 33 34 35 36 37 38 39 40 41 42 43 44 45 46 47 48 49 50

000
ASUS43 KDMX 191406
RWRIA

WEATHER ROUNDUP FOR IOWA
NATIONAL WEATHER SERVICE DES MOINES IA
900 AM CDT THU APR 19 2018

NOTE: "FAIR" INDICATES FEW OR NO CLOUDS BELOW 12,000 FEET WITH NO
SIGNIFICANT WEATHER AND/OR OBSTRUCTIONS TO VISIBILITY.

* - THESE STATIONS ARE NOT NWS STATIONS...THUS NOT UNDER NWS
QUALITY CONTROL.  THEY ALSO DO NOT REPORT WEATHER SUCH
AS PRECIPITATION OR FOG.

IAZ001>003-012>014-020>022-031>034-043>046-191500-
   NORTHWEST IOWA

CITY           SKY/WX    TMP DP  RH WIND       PRES   REMARKS
CARROLL *      SUNNY     34  28  80 N8        30.44R WCI  27
CHEROKEE *     SUNNY     31  22  69 N3        30.46R
DENISON *      SUNNY     34  27  75 NE7       30.45R WCI  28
LE MARS *      SUNNY     30  21  69 N6        30.46R WCI  24
ORANGE CITY *  CLOUDY    30  19  64 NE3       30.44R
SHELDON *      CLOUDY    25  19  80 N3        30.43R
SIOUX CITY     SUNNY     36  25  64 CALM      30.46R
SPENCER        CLOUDY    25  16  68 W5        30.45R WCI  19
STORM LAKE *   SUNNY     30  21  69 N6        30.44R WCI  24
$$

IAZ055>058-069>071-079>083-090>094-191500-
   SOUTHWEST IOWA

CITY           SKY/WX    TMP DP  RH WIND       PRES   REMARKS
ATLANTIC *     SUNNY     36  30  80 NE8       30.43R WCI  29
AUDUBON *      SUNNY     36  30  80 N7        30.44R WCI  30
CLARINDA *     SUNNY     37  32  81 NE6       30.47R WCI  33
COUNCIL BLFS * SUNNY     37  36  93 N8        30.44R WCI  31
CRESTON *      SUNNY     36  30  80 N10       30.43R WCI  28
HARLAN  *      SUNNY     34  32  93 N9        30.47R WCI  26
LAMONI         SUNNY     38  29  70 N12       30.40R WCI  30
RED OAK *      SUNNY     39  32  75 N8        30.45R WCI  34
SHENANDOAH *   SUNNY     37  32  81 N8        30.46R WCI  31
$$

IAZ047>049-059>061-072>074-084-191500-
   CENTRAL IOWA

CITY           SKY/WX    TMP DP  RH WIND       PRES   REMARKS
AMES           SUNNY     35  26  69 N7        30.43R WCI  29
ANKENY *       SUNNY     37  28  70 N6        30.44R WCI  33
BOONE *        SUNNY     34  27  75 N7        30.42R WCI  28
CHARITON *     SUNNY     36  30  80 N9        30.41R WCI  29
DES MOINES     MOSUNNY   39  28  64 N5        30.43R
GRINNELL*      SUNNY     35  29  79 N8        30.40R WCI  28
KNOXVILLE *    SUNNY     36  28  75 NW7       30.40R WCI  30
MARSHALLTOWN   CLOUDY    33  27  78 N8        30.40R WCI  26
NEWTON *       SUNNY     34  28  80 N7        30.41R WCI  28
PELLA *        SUNNY     37  30  75 N3        30.42R
PERRY *        FAIR      35  29  78 N8        30.44R WCI  29
$$

IAZ004>006-015-016-023>025-035-036-191500-
   NORTH CENTRAL IOWA

CITY           SKY/WX    TMP DP  RH WIND       PRES   REMARKS
ALGONA *       CLOUDY    21  14  73 N5        30.45R WCI  15
CLARION *      CLOUDY    23  18  80 NW7       30.43R WCI  15
ESTHERVILLE    CLOUDY    19  14  81 NW8       30.44R WCI   9
FORT DODGE *   CLOUDY    32  22  66 N3        30.44R
MASON CITY     CLOUDY    25  19  78 NW8       30.44R WCI  16
FOREST CITY *  FAIR      30  19  64 N10       30.43R WCI  21
WEBSTER CITY * CLOUDY    28  23  80 NW9       30.42R WCI  20
IOWA FALLS *   FAIR      31  25  77 NW6       30.42R WCI  26
$$

IAZ007>011-017>019-026>030-037>042-050>054-066-191500-
   NORTHEAST IOWA

CITY           SKY/WX    TMP DP  RH WIND       PRES   REMARKS
CEDAR RAPIDS   FAIR      35  28  75 N10       30.35R WCI  27
CHARLES CITY * FAIR      25  21  86 N10       30.40R WCI  15
CLINTON *      FAIR      35  30  82 N13       30.35R WCI  26
DECORAH *      FAIR      30  23  74 CALM      30.38R
DUBUQUE        FAIR      32  23  69 N10       30.35R WCI  24
MONTICELLO *   FAIR      32  27  80 N7        30.37R WCI  26
OELWEIN *      FAIR      28  28 100 N7        30.39R WCI  21
WATERLOO       FAIR      31  22  69 N8        30.39R WCI  23
$$

IAZ064-065-067-068-078-191500-
   EAST CENTRAL IOWA

CITY           SKY/WX    TMP DP  RH WIND       PRES   REMARKS
DAVENPORT      FAIR      34  28  79 N13       30.37R WCI  25
IOWA CITY      FAIR      39  26  59 N12       30.38R WCI  32
MT. PLEASANT * SUNNY     37  32  81 N10       30.37R WCI  30
MUSCATINE *    FAIR      39  28  65 NE10      30.37R WCI  32
QUAD CITIES    FAIR      38  28  67 N13       30.35R WCI  30
$$

IAZ062-063-075>077-085>089-095>099-191500-
   SOUTHEAST IOWA

CITY           SKY/WX    TMP DP  RH WIND       PRES   REMARKS
BURLINGTON     SUNNY     41  29  62 NE13      30.35R
FAIRFIELD *    SUNNY     37  30  75 N8        30.38R WCI  31
FORT MADISON * SUNNY     39  32  75 N7        30.37R WCI  34
KEOKUK *       SUNNY     39  32  75 N8        30.36R WCI  34
OSKALOOSA *    FAIR      35  30  81 N7        30.40R WCI  29
CENTERVILLE *    N/A     37  36  93 CALM      30.41R
OTTUMWA        SUNNY     38  30  73 N7        30.39R WCI  33
WASHINGTON *   SUNNY     37  34  87 NE9       30.38R WCI  31
$$

ABBREVIATIONS USED IN REMARKS
   TC - TEMPERATURES IN CELSIUS
  WCI - WIND CHILL INDEX
   HX - HEAT INDEX
  VSB - VISIBILITY
$$




USA.gov is the U.S. government's official web portal to all federal, state and local government web resources and services.